NAVSTAR 76 (USA 266) 1 41328U 16007A 21111.22669446 .00000046 00000-0 00000-0 0 9997 2 41328 54.8464 164.2262 0050193 225.0820 134.5836 2.00564868 38078 ATLAS V CENTAUR R/B 1 41329U 16007B 21110.17728338 .00000030 00000-0 00000-0 0 9990 2 41329 55.1915 170.9606 0139125 320.3342 38.7302 1.91800099 36474